C2610 Weather Reports


time (UTC)temp
F
wind
direction
speed
knots
gust
knots
rain 1hr
in
rain 24hr
in
rain mn
in
humidity
%
barometer
mb
20260505083005 51 0 0.0 0.0 0.00 0.00 0.00 88 1029.3
20260505081504 51 0 0.0 0.0 0.00 0.00 0.00 88 1029.2
20260505074504 52 141 0.0 0.9 0.00 0.00 0.00 87 1029.2
20260505070005 53 0 0.0 0.0 0.00 0.00 0.00 86 1028.7
20260505064504 53 0 0.0 0.0 0.00 0.00 0.00 85 1028.5
20260505063003 54 141 0.0 1.7 0.00 0.00 0.00 83 1028.4
20260505060004 55 0 0.0 0.0 0.00 0.00 0.00 81 1028.0
20260505054504 55 140 0.0 0.9 0.00 0.00 0.00 79 1027.9
20260505041505 59 189 0.9 2.6 0.00 0.00 0.00 72 1027.1
20260505040004 60 196 0.0 0.9 0.00 0.00 0.00 72 1026.9
20260505033003 62 198 0.0 1.7 0.00 0.00 0.00 66 1026.5
20260505031503 64 201 0.0 1.7 0.00 0.00 0.00 63 1026.3
20260505023004 67 288 0.0 2.6 0.00 0.00 0.00 57 1026.0
20260505021503 68 296 0.9 3.5 0.00 0.00 0.00 56 1026.1
20260505020005 69 170 0.9 2.6 0.00 0.00 0.00 55 1026.2
20260505014504 69 310 1.7 4.3 0.00 0.00 0.00 53 1026.3
20260505013004 71 356 2.6 4.3 0.00 0.00 0.00 51 1026.5
20260505011504 73 332 2.6 7.0 0.00 0.00 0.00 49 1026.6
20260505010004 75 349 1.7 6.1 0.00 0.00 0.00 47 1026.7
20260505004503 76 318 2.6 7.0 0.00 0.00 0.00 45 1026.8
20260505003003 77 288 1.7 4.3 0.00 0.00 0.00 43 1026.8
20260505001503 76 308 1.7 4.3 0.00 0.00 0.00 42 1026.8
20260505000003 78 282 1.7 7.0 0.00 0.00 0.00 40 1026.7
20260504234504 77 325 1.7 4.3 0.00 0.00 0.00 40 1026.8
20260504233004 77 329 1.7 7.8 0.00 0.00 0.00 42 1026.7
20260504230004 76 69 0.9 2.6 0.00 0.00 0.00 47 1026.9
20260504224503 76 41 1.7 1.7 0.00 0.00 0.00 46 1027.0
20260504223004 76 76 1.7 2.6 0.00 0.00 0.00 45 1027.1
20260504220003 75 81 0.9 2.6 0.00 0.00 0.00 49 1027.3
20260504214504 73 61 0.9 4.3 0.00 0.00 0.00 50 1027.4
20260504213005 72 51 1.7 3.5 0.00 0.00 0.00 48 1027.6
20260504210005 72 36 0.9 2.6 0.00 0.00 0.00 48 1027.8
20260504204503 72 49 0.9 2.6 0.00 0.00 0.00 49 1027.9
20260504203003 70 60 0.9 2.6 0.00 0.00 0.00 50 1027.9
20260504201504 70 51 1.7 2.6 0.00 0.00 0.00 51 1027.9
20260504200004 70 80 0.9 2.6 0.00 0.00 0.00 51 1027.9
20260504193004 70 61 0.9 4.3 0.00 0.00 0.00 54 1028.0
20260504191503 70 66 0.9 3.5 0.00 0.00 0.00 51 1028.0
20260504190004 69 71 0.9 1.7 0.00 0.00 0.00 55 1028.0
20260504181503 66 72 1.7 2.6 0.00 0.00 0.00 56 1028.3
20260504180003 66 81 1.7 2.6 0.00 0.00 0.00 56 1028.1
20260504174504 66 59 1.7 3.5 0.00 0.00 0.00 55 1028.1
20260504173004 65 68 0.9 2.6 0.00 0.00 0.00 58 1028.1
20260504171504 65 61 1.7 4.3 0.00 0.00 0.00 56 1028.1